Location: Koslow
(50.3020°N, 18.5663°E)
Time: 01:07:42
(UTC+00:00)

X-37B - Pass Details

Date: 10 August 2021
Orbit: 381 x 393 km, 45.0° (Epoch: 29 August)

Event Time Altitude Azimuth Distance (km) Brightness Sun altitude
Exits shadow 01:18:19 27° 152° (SSE) 768 1.8 -16.7°
Drops below altitude 10° 01:20:24 10° 116° (ESE) 1,397 3.5 -16.5°
Sets 01:22:35 0° 106° (ESE) 2,249 4.8 -16.2°
